START_TIME,STEP,MOV.,P11,t_acc.,P23,t_acc.,P27,t_acc.,A4,t_acc.
1979-03-08 06:00:20.990 ,7,0,0.,4.8,0.,4.8,0.,4.8,0.,4.8
1979-03-08 06:00:25.790 ,7,0,1.,4.8,0.,4.8,0.,4.8,0.,4.8
1979-03-08 06:00:30.590 ,7,0,0.,4.8,0.,4.8,0.,4.8,0.,4.8
1979-03-08 06:00:35.390 ,7,0,0.,4.8,0.,4.8,0.,4.8,0.,4.8
1979-03-08 06:00:40.190 ,7,0,1.,4.8,0.,4.8,0.,4.8,0.,4.8
1979-03-08 06:00:44.990 ,6,0,0.,4.8,0.,4.8,0.,4.8,0.,4.8
1979-03-08 06:00:49.790 ,6,0,0.,4.8,0.,4.8,0.,4.8,0.,4.8
1979-03-08 06:00:54.590 ,6,0,2.,4.8,0.,4.8,0.,4.8,0.,4.8
1979-03-08 06:00:59.390 ,6,0,2.,4.8,0.,4.8,0.,4.8,0.,4.8
1979-03-08 06:01:04.190 ,6,0,2.,4.8,0.,4.8,0.,4.8,0.,4.8
1979-03-08 06:01:08.990 ,5,0,1.,4.8,0.,4.8,0.,4.8,0.,4.8
1979-03-08 06:01:13.790 ,5,0,3.,4.8,0.,4.8,0.,4.8,0.,4.8
1979-03-08 06:01:18.590 ,5,0,2.,4.8,0.,4.8,0.,4.8,0.,4.8
1979-03-08 06:01:23.390 ,5,0,2.,4.8,0.,4.8,0.,4.8,0.,4.8
1979-03-08 06:01:28.190 ,5,0,3.,4.8,0.,4.8,0.,4.8,0.,4.8
1979-03-08 06:01:32.990 ,4,0,3.,4.8,0.,4.8,0.,4.8,1.,4.8
1979-03-08 06:01:37.790 ,4,0,3.,4.8,0.,4.8,0.,4.8,0.,4.8
1979-03-08 06:01:42.590 ,4,0,4.,4.8,0.,4.8,0.,4.8,0.,4.8
1979-03-08 06:01:47.390 ,4,0,3.,4.8,0.,4.8,0.,4.8,0.,4.8
1979-03-08 06:01:52.190 ,4,0,3.,4.8,0.,4.8,0.,4.8,0.,4.8
1979-03-08 06:01:56.990 ,3,0,0.,4.8,0.,4.8,0.,4.8,0.,4.8
1979-03-08 06:02:01.790 ,3,0,4.,4.8,0.,4.8,0.,4.8,0.,4.8
1979-03-08 06:02:06.590 ,3,0,0.,4.8,0.,4.8,0.,4.8,0.,4.8
1979-03-08 06:02:11.390 ,3,0,0.,4.8,0.,4.8,0.,4.8,0.,4.8
1979-03-08 06:02:16.190 ,3,0,4.,4.8,0.,4.8,0.,4.8,0.,4.8
1979-03-08 06:02:20.990 ,2,0,4.,4.8,0.,4.8,0.,4.8,0.,4.8
1979-03-08 06:02:25.790 ,2,0,2.,4.8,0.,4.8,0.,4.8,0.,4.8
1979-03-08 06:02:30.590 ,2,0,1.,4.8,0.,4.8,0.,4.8,0.,4.8
1979-03-08 06:02:35.390 ,2,0,5.,4.8,0.,4.8,0.,4.8,1.,4.8
1979-03-08 06:02:40.190 ,2,0,4.,4.8,0.,4.8,0.,4.8,0.,4.8
1979-03-08 06:02:44.990 ,1,0,2.,4.8,0.,4.8,0.,4.8,0.,4.8
1979-03-08 06:02:49.790 ,1,0,4.,4.8,0.,4.8,0.,4.8,0.,4.8
1979-03-08 06:02:54.590 ,1,0,1.,4.8,0.,4.8,0.,4.8,0.,4.8
1979-03-08 06:02:59.390 ,1,0,2.,4.8,0.,4.8,0.,4.8,0.,4.8
1979-03-08 06:03:04.190 ,1,0,5.,4.8,0.,4.8,0.,4.8,0.,4.8
1979-03-08 06:03:08.990 ,0,0,2.,4.8,0.,4.8,0.,4.8,0.,4.8
1979-03-08 06:03:13.790 ,0,0,5.,4.8,0.,4.8,0.,4.8,0.,4.8
1979-03-08 06:03:18.590 ,0,0,1.,4.8,0.,4.8,0.,4.8,0.,4.8
1979-03-08 06:03:23.390 ,0,0,2.,4.8,0.,4.8,0.,4.8,0.,4.8
1979-03-08 06:03:28.190 ,0,0,2.,4.8,0.,4.8,0.,4.8,0.,4.8
1979-03-08 06:03:32.990 ,0,0,4.,4.8,0.,4.8,0.,4.8,0.,4.8
1979-03-08 06:03:37.790 ,0,0,4.,4.8,0.,4.8,0.,4.8,0.,4.8
1979-03-08 06:03:42.590 ,0,0,2.,4.8,0.,4.8,0.,4.8,0.,4.8
1979-03-08 06:03:47.390 ,0,0,4.,4.8,0.,4.8,0.,4.8,0.,4.8
1979-03-08 06:03:52.190 ,0,0,3.,4.8,0.,4.8,0.,4.8,0.,4.8
1979-03-08 06:03:56.990 ,1,0,4.,4.8,0.,4.8,0.,4.8,0.,4.8
1979-03-08 06:04:01.790 ,1,0,5.,4.8,0.,4.8,0.,4.8,0.,4.8
1979-03-08 06:04:06.590 ,1,0,2.,4.8,0.,4.8,0.,4.8,0.,4.8
1979-03-08 06:04:11.390 ,1,0,2.,4.8,0.,4.8,0.,4.8,0.,4.8
1979-03-08 06:04:16.190 ,1,0,3.,4.8,0.,4.8,0.,4.8,0.,4.8
1979-03-08 06:04:20.990 ,2,0,3.,4.8,0.,4.8,0.,4.8,0.,4.8
1979-03-08 06:04:25.790 ,2,0,1.,4.8,0.,4.8,0.,4.8,0.,4.8
1979-03-08 06:04:30.590 ,2,0,4.,4.8,0.,4.8,0.,4.8,0.,4.8
1979-03-08 06:04:35.390 ,2,0,1.,4.8,0.,4.8,0.,4.8,0.,4.8
1979-03-08 06:04:40.190 ,2,0,2.,4.8,0.,4.8,0.,4.8,0.,4.8
1979-03-08 06:04:44.990 ,3,0,1.,4.8,0.,4.8,0.,4.8,0.,4.8
1979-03-08 06:04:49.790 ,3,0,1.,4.8,0.,4.8,0.,4.8,0.,4.8
1979-03-08 06:04:54.590 ,3,0,0.,4.8,0.,4.8,0.,4.8,0.,4.8
1979-03-08 06:04:59.390 ,3,0,1.,4.8,0.,4.8,0.,4.8,0.,4.8
1979-03-08 06:05:04.190 ,3,0,1.,4.8,0.,4.8,0.,4.8,0.,4.8
1979-03-08 06:05:08.990 ,4,0,0.,4.8,0.,4.8,0.,4.8,0.,4.8
1979-03-08 06:05:13.790 ,4,0,2.,4.8,0.,4.8,0.,4.8,0.,4.8
1979-03-08 06:05:18.590 ,4,0,0.,4.8,0.,4.8,0.,4.8,1.,4.8
1979-03-08 06:05:23.390 ,4,0,2.,4.8,0.,4.8,0.,4.8,0.,4.8
1979-03-08 06:05:28.190 ,4,0,0.,4.8,0.,4.8,0.,4.8,0.,4.8
1979-03-08 06:05:32.990 ,5,0,2.,4.8,0.,4.8,0.,4.8,0.,4.8
1979-03-08 06:05:37.790 ,5,0,0.,4.8,0.,4.8,0.,4.8,0.,4.8
1979-03-08 06:05:42.590 ,5,0,2.,4.8,0.,4.8,0.,4.8,0.,4.8
1979-03-08 06:05:47.390 ,5,0,2.,4.8,0.,4.8,0.,4.8,0.,4.8
1979-03-08 06:05:52.190 ,5,0,2.,4.8,0.,4.8,0.,4.8,0.,4.8
1979-03-08 06:05:56.990 ,6,0,1.,4.8,0.,4.8,0.,4.8,0.,4.8
1979-03-08 06:06:01.790 ,6,0,2.,4.8,0.,4.8,0.,4.8,0.,4.8
1979-03-08 06:06:06.590 ,6,0,3.,4.8,0.,4.8,0.,4.8,0.,4.8
1979-03-08 06:06:11.390 ,6,0,4.,4.8,0.,4.8,0.,4.8,0.,4.8
1979-03-08 06:06:16.190 ,6,0,1.,4.8,0.,4.8,0.,4.8,0.,4.8
1979-03-08 06:06:20.990 ,7,0,2.,4.8,0.,4.8,0.,4.8,0.,4.8
1979-03-08 06:06:25.790 ,7,0,0.,4.8,0.,4.8,0.,4.8,0.,4.8
1979-03-08 06:06:30.590 ,7,0,0.,4.8,0.,4.8,0.,4.8,0.,4.8
1979-03-08 06:06:35.390 ,7,0,1.,4.8,0.,4.8,0.,4.8,0.,4.8
1979-03-08 06:06:40.190 ,7,0,0.,4.8,0.,4.8,0.,4.8,0.,4.8
1979-03-08 06:06:44.990 ,7,0,0.,4.8,0.,4.8,0.,4.8,0.,4.8
1979-03-08 06:06:49.790 ,7,0,1.,4.8,0.,4.8,0.,4.8,0.,4.8
1979-03-08 06:06:54.590 ,7,0,2.,4.8,0.,4.8,0.,4.8,0.,4.8
1979-03-08 06:06:59.390 ,7,0,0.,4.8,0.,4.8,0.,4.8,0.,4.8
1979-03-08 06:07:04.190 ,7,0,0.,4.8,0.,4.8,0.,4.8,0.,4.8
1979-03-08 06:07:08.990 ,6,0,0.,4.8,0.,4.8,0.,4.8,0.,4.8
1979-03-08 06:07:13.790 ,6,0,0.,4.8,0.,4.8,0.,4.8,0.,4.8
1979-03-08 06:07:18.590 ,6,0,2.,4.8,0.,4.8,0.,4.8,0.,4.8
1979-03-08 06:07:23.390 ,6,0,3.,4.8,0.,4.8,0.,4.8,0.,4.8
1979-03-08 06:07:28.190 ,6,0,2.,4.8,0.,4.8,0.,4.8,0.,4.8
1979-03-08 06:07:32.990 ,5,0,5.,4.8,0.,4.8,0.,4.8,0.,4.8
1979-03-08 06:07:37.790 ,5,0,1.,4.8,0.,4.8,0.,4.8,0.,4.8
1979-03-08 06:07:42.590 ,5,0,1.,4.8,0.,4.8,0.,4.8,0.,4.8
1979-03-08 06:07:47.390 ,5,0,0.,4.8,0.,4.8,0.,4.8,0.,4.8
1979-03-08 06:07:52.190 ,5,0,2.,4.8,0.,4.8,0.,4.8,0.,4.8
1979-03-08 06:07:56.990 ,4,0,3.,4.8,0.,4.8,0.,4.8,0.,4.8
1979-03-08 06:08:01.790 ,4,0,2.,4.8,0.,4.8,0.,4.8,0.,4.8
1979-03-08 06:08:06.590 ,4,0,5.,4.8,0.,4.8,0.,4.8,0.,4.8
1979-03-08 06:08:11.390 ,4,0,1.,4.8,0.,4.8,0.,4.8,0.,4.8
1979-03-08 06:08:16.190 ,4,0,4.,4.8,0.,4.8,0.,4.8,0.,4.8
1979-03-08 06:08:20.990 ,3,0,2.,4.8,0.,4.8,0.,4.8,0.,4.8
1979-03-08 06:08:25.790 ,3,0,2.,4.8,0.,4.8,0.,4.8,0.,4.8
1979-03-08 06:08:30.590 ,3,0,2.,4.8,0.,4.8,0.,4.8,0.,4.8
1979-03-08 06:08:35.390 ,3,0,3.,4.8,0.,4.8,0.,4.8,0.,4.8
1979-03-08 06:08:40.190 ,3,0,1.,4.8,0.,4.8,0.,4.8,0.,4.8
1979-03-08 06:08:44.990 ,2,0,3.,4.8,0.,4.8,0.,4.8,0.,4.8
1979-03-08 06:08:49.790 ,2,0,2.,4.8,0.,4.8,0.,4.8,0.,4.8
1979-03-08 06:08:54.590 ,2,0,2.,4.8,0.,4.8,0.,4.8,0.,4.8
1979-03-08 06:08:59.390 ,2,0,1.,4.8,0.,4.8,0.,4.8,0.,4.8
1979-03-08 06:09:04.190 ,2,0,2.,4.8,0.,4.8,0.,4.8,0.,4.8
1979-03-08 06:09:08.990 ,1,0,1.,4.8,0.,4.8,0.,4.8,0.,4.8
1979-03-08 06:09:13.790 ,1,0,1.,4.8,0.,4.8,0.,4.8,0.,4.8
1979-03-08 06:09:18.590 ,1,0,1.,4.8,0.,4.8,0.,4.8,0.,4.8
1979-03-08 06:09:23.390 ,1,0,2.,4.8,0.,4.8,0.,4.8,1.,4.8
1979-03-08 06:09:28.190 ,1,0,1.,4.8,0.,4.8,0.,4.8,0.,4.8
1979-03-08 06:09:32.990 ,0,0,4.,4.8,0.,4.8,0.,4.8,0.,4.8
1979-03-08 06:09:37.790 ,0,0,1.,4.8,0.,4.8,0.,4.8,0.,4.8
1979-03-08 06:09:42.590 ,0,0,6.,4.8,0.,4.8,0.,4.8,0.,4.8
1979-03-08 06:09:47.390 ,0,0,1.,4.8,0.,4.8,0.,4.8,0.,4.8
1979-03-08 06:09:52.190 ,0,0,0.,4.8,0.,4.8,0.,4.8,0.,4.8
1979-03-08 06:09:56.990 ,0,0,5.,4.8,0.,4.8,0.,4.8,0.,4.8
1979-03-08 06:10:01.790 ,0,0,5.,4.8,0.,4.8,0.,4.8,0.,4.8
1979-03-08 06:10:06.590 ,0,0,4.,4.8,0.,4.8,0.,4.8,0.,4.8
1979-03-08 06:10:11.390 ,0,0,0.,4.8,0.,4.8,0.,4.8,0.,4.8
1979-03-08 06:10:16.190 ,0,0,3.,4.8,0.,4.8,0.,4.8,0.,4.8
1979-03-08 06:10:20.990 ,1,0,3.,4.8,0.,4.8,0.,4.8,0.,4.8
1979-03-08 06:10:25.790 ,1,0,3.,4.8,0.,4.8,0.,4.8,0.,4.8
1979-03-08 06:10:30.590 ,1,0,5.,4.8,0.,4.8,0.,4.8,0.,4.8
1979-03-08 06:10:35.390 ,1,0,4.,4.8,0.,4.8,0.,4.8,0.,4.8
1979-03-08 06:10:40.190 ,1,0,1.,4.8,0.,4.8,0.,4.8,0.,4.8
1979-03-08 06:10:44.990 ,2,0,4.,4.8,0.,4.8,0.,4.8,0.,4.8
1979-03-08 06:10:49.790 ,2,0,4.,4.8,0.,4.8,0.,4.8,0.,4.8
1979-03-08 06:10:54.590 ,2,0,9.,4.8,0.,4.8,0.,4.8,0.,4.8
1979-03-08 06:10:59.390 ,2,0,9.,4.8,0.,4.8,0.,4.8,0.,4.8
1979-03-08 06:11:04.190 ,2,0,7.,4.8,0.,4.8,0.,4.8,0.,4.8
1979-03-08 06:11:08.990 ,3,0,6.,4.8,0.,4.8,0.,4.8,0.,4.8
1979-03-08 06:11:13.790 ,3,0,7.,4.8,0.,4.8,0.,4.8,0.,4.8
1979-03-08 06:11:18.590 ,3,0,3.,4.8,0.,4.8,0.,4.8,0.,4.8
1979-03-08 06:11:23.390 ,3,0,3.,4.8,0.,4.8,0.,4.8,0.,4.8
1979-03-08 06:11:28.190 ,3,0,6.,4.8,0.,4.8,0.,4.8,0.,4.8
1979-03-08 06:11:32.990 ,4,0,3.,4.8,0.,4.8,0.,4.8,0.,4.8
1979-03-08 06:11:37.790 ,4,0,7.,4.8,0.,4.8,0.,4.8,0.,4.8
1979-03-08 06:11:42.590 ,4,0,6.,4.8,0.,4.8,0.,4.8,0.,4.8
1979-03-08 06:11:47.390 ,4,0,4.,4.8,0.,4.8,0.,4.8,0.,4.8
1979-03-08 06:11:52.190 ,4,0,7.,4.8,0.,4.8,0.,4.8,0.,4.8
1979-03-08 06:11:56.990 ,5,0,10.,4.8,0.,4.8,0.,4.8,0.,4.8
1979-03-08 06:12:01.790 ,5,0,7.,4.8,0.,4.8,0.,4.8,0.,4.8
1979-03-08 06:12:06.590 ,5,0,9.,4.8,0.,4.8,0.,4.8,0.,4.8
1979-03-08 06:12:11.390 ,5,0,9.,4.8,0.,4.8,0.,4.8,0.,4.8
1979-03-08 06:12:16.190 ,5,0,8.,4.8,0.,4.8,0.,4.8,0.,4.8
1979-03-08 06:12:20.990 ,6,0,7.,4.8,0.,4.8,0.,4.8,0.,4.8
1979-03-08 06:12:25.790 ,6,0,11.,4.8,0.,4.8,0.,4.8,0.,4.8
1979-03-08 06:12:30.590 ,6,0,12.,4.8,0.,4.8,0.,4.8,0.,4.8
1979-03-08 06:12:35.390 ,6,0,6.,4.8,0.,4.8,0.,4.8,0.,4.8
1979-03-08 06:12:40.190 ,6,0,6.,4.8,0.,4.8,0.,4.8,0.,4.8
1979-03-08 06:12:44.990 ,7,0,6.,4.8,0.,4.8,0.,4.8,0.,4.8
1979-03-08 06:12:49.790 ,7,0,12.,4.8,0.,4.8,0.,4.8,0.,4.8
1979-03-08 06:12:54.590 ,7,0,4.,4.8,0.,4.8,0.,4.8,0.,4.8
1979-03-08 06:12:59.390 ,7,0,3.,4.8,0.,4.8,0.,4.8,0.,4.8
1979-03-08 06:13:04.190 ,7,0,4.,4.8,0.,4.8,0.,4.8,0.,4.8
1979-03-08 06:13:08.990 ,7,0,5.,4.8,0.,4.8,0.,4.8,0.,4.8
1979-03-08 06:13:13.790 ,7,0,0.,4.8,0.,4.8,0.,4.8,0.,4.8
1979-03-08 06:13:18.590 ,7,0,4.,4.8,0.,4.8,0.,4.8,0.,4.8
1979-03-08 06:13:23.390 ,7,0,2.,4.8,0.,4.8,0.,4.8,0.,4.8
1979-03-08 06:13:28.190 ,7,0,4.,4.8,0.,4.8,0.,4.8,0.,4.8
1979-03-08 06:13:32.990 ,6,0,7.,4.8,0.,4.8,0.,4.8,0.,4.8
1979-03-08 06:13:37.790 ,6,0,1.,4.8,0.,4.8,0.,4.8,0.,4.8
1979-03-08 06:13:42.590 ,6,0,5.,4.8,0.,4.8,0.,4.8,0.,4.8
1979-03-08 06:13:47.390 ,6,0,4.,4.8,0.,4.8,0.,4.8,0.,4.8
1979-03-08 06:13:52.190 ,6,0,8.,4.8,0.,4.8,0.,4.8,0.,4.8
1979-03-08 06:13:56.990 ,5,0,6.,4.8,0.,4.8,0.,4.8,0.,4.8
1979-03-08 06:14:01.790 ,5,0,5.,4.8,0.,4.8,0.,4.8,0.,4.8
1979-03-08 06:14:06.590 ,5,0,14.,4.8,0.,4.8,0.,4.8,0.,4.8
1979-03-08 06:14:11.390 ,5,0,6.,4.8,0.,4.8,0.,4.8,0.,4.8
1979-03-08 06:14:16.190 ,5,0,8.,4.8,0.,4.8,0.,4.8,0.,4.8
1979-03-08 06:14:20.990 ,4,0,13.,4.8,0.,4.8,0.,4.8,0.,4.8
1979-03-08 06:14:25.790 ,4,0,12.,4.8,0.,4.8,0.,4.8,0.,4.8
1979-03-08 06:14:30.590 ,4,0,10.,4.8,0.,4.8,0.,4.8,0.,4.8
1979-03-08 06:14:35.390 ,4,0,8.,4.8,0.,4.8,0.,4.8,0.,4.8
1979-03-08 06:14:40.190 ,4,0,6.,4.8,0.,4.8,0.,4.8,0.,4.8
1979-03-08 06:14:44.990 ,3,0,11.,4.8,0.,4.8,0.,4.8,0.,4.8
1979-03-08 06:14:49.790 ,3,0,8.,4.8,0.,4.8,0.,4.8,0.,4.8
1979-03-08 06:14:54.590 ,3,0,19.,4.8,0.,4.8,0.,4.8,0.,4.8
1979-03-08 06:14:59.390 ,3,0,8.,4.8,0.,4.8,0.,4.8,0.,4.8
1979-03-08 06:15:04.190 ,3,0,8.,4.8,0.,4.8,0.,4.8,0.,4.8
1979-03-08 06:15:08.990 ,2,0,6.,4.8,0.,4.8,0.,4.8,0.,4.8
1979-03-08 06:15:13.790 ,2,0,5.,4.8,0.,4.8,0.,4.8,0.,4.8
1979-03-08 06:15:18.590 ,2,0,10.,4.8,0.,4.8,0.,4.8,1.,4.8
1979-03-08 06:15:23.390 ,2,0,9.,4.8,0.,4.8,0.,4.8,0.,4.8
1979-03-08 06:15:28.190 ,2,0,6.,4.8,0.,4.8,0.,4.8,0.,4.8
1979-03-08 06:15:32.990 ,1,0,15.,4.8,0.,4.8,0.,4.8,0.,4.8
1979-03-08 06:15:37.790 ,1,0,5.,4.8,0.,4.8,0.,4.8,0.,4.8
1979-03-08 06:15:42.590 ,1,0,8.,4.8,0.,4.8,0.,4.8,0.,4.8
1979-03-08 06:15:47.390 ,1,0,5.,4.8,0.,4.8,0.,4.8,0.,4.8
1979-03-08 06:15:52.190 ,1,0,11.,4.8,0.,4.8,0.,4.8,0.,4.8
1979-03-08 06:15:56.990 ,0,0,11.,4.8,0.,4.8,0.,4.8,1.,4.8
1979-03-08 06:16:01.790 ,0,0,6.,4.8,0.,4.8,0.,4.8,0.,4.8
1979-03-08 06:16:06.590 ,0,0,4.,4.8,0.,4.8,0.,4.8,0.,4.8
1979-03-08 06:16:11.390 ,0,0,6.,4.8,0.,4.8,0.,4.8,0.,4.8
1979-03-08 06:16:16.190 ,0,0,10.,4.8,0.,4.8,0.,4.8,0.,4.8
1979-03-08 06:16:20.990 ,0,0,6.,4.8,0.,4.8,0.,4.8,0.,4.8
1979-03-08 06:16:25.790 ,0,0,6.,4.8,0.,4.8,0.,4.8,0.,4.8
1979-03-08 06:16:30.590 ,0,0,9.,4.8,0.,4.8,0.,4.8,0.,4.8
1979-03-08 06:16:35.390 ,0,0,12.,4.8,0.,4.8,0.,4.8,0.,4.8
1979-03-08 06:16:40.190 ,0,0,4.,4.8,0.,4.8,0.,4.8,0.,4.8
1979-03-08 06:16:44.990 ,1,0,10.,4.8,0.,4.8,0.,4.8,0.,4.8
1979-03-08 06:16:49.790 ,1,0,9.,4.8,0.,4.8,0.,4.8,0.,4.8
1979-03-08 06:16:54.590 ,1,0,8.,4.8,0.,4.8,0.,4.8,0.,4.8
1979-03-08 06:16:59.390 ,1,0,5.,4.8,0.,4.8,0.,4.8,0.,4.8
1979-03-08 06:17:04.190 ,1,0,10.,4.8,0.,4.8,0.,4.8,0.,4.8
1979-03-08 06:17:08.990 ,2,0,12.,4.8,0.,4.8,0.,4.8,0.,4.8
1979-03-08 06:17:13.790 ,2,0,10.,4.8,0.,4.8,0.,4.8,0.,4.8
1979-03-08 06:17:18.590 ,2,0,10.,4.8,0.,4.8,0.,4.8,0.,4.8
1979-03-08 06:17:23.390 ,2,0,7.,4.8,0.,4.8,0.,4.8,0.,4.8
1979-03-08 06:17:28.190 ,2,0,14.,4.8,0.,4.8,0.,4.8,0.,4.8
1979-03-08 06:17:32.990 ,3,0,14.,4.8,0.,4.8,0.,4.8,0.,4.8
1979-03-08 06:17:37.790 ,3,0,10.,4.8,0.,4.8,0.,4.8,0.,4.8
1979-03-08 06:17:42.590 ,3,0,10.,4.8,0.,4.8,0.,4.8,0.,4.8
1979-03-08 06:17:47.390 ,3,0,5.,4.8,0.,4.8,0.,4.8,0.,4.8
1979-03-08 06:17:52.190 ,3,0,6.,4.8,0.,4.8,0.,4.8,0.,4.8
1979-03-08 06:17:56.990 ,4,0,10.,4.8,0.,4.8,0.,4.8,0.,4.8
1979-03-08 06:18:01.790 ,4,0,6.,4.8,0.,4.8,0.,4.8,0.,4.8
1979-03-08 06:18:06.590 ,4,0,7.,4.8,0.,4.8,0.,4.8,0.,4.8
1979-03-08 06:18:11.390 ,4,0,10.,4.8,0.,4.8,0.,4.8,0.,4.8
1979-03-08 06:18:16.190 ,4,0,12.,4.8,0.,4.8,0.,4.8,1.,4.8
1979-03-08 06:18:20.990 ,5,0,8.,4.8,0.,4.8,0.,4.8,0.,4.8
1979-03-08 06:18:25.790 ,5,0,10.,4.8,0.,4.8,0.,4.8,0.,4.8
1979-03-08 06:18:30.590 ,5,0,9.,4.8,0.,4.8,0.,4.8,0.,4.8
1979-03-08 06:18:35.390 ,5,0,16.,4.8,0.,4.8,0.,4.8,0.,4.8
1979-03-08 06:18:40.190 ,5,0,11.,4.8,0.,4.8,0.,4.8,1.,4.8
1979-03-08 06:18:44.990 ,6,0,11.,4.8,0.,4.8,0.,4.8,0.,4.8
1979-03-08 06:18:49.790 ,6,0,6.,4.8,0.,4.8,0.,4.8,0.,4.8
1979-03-08 06:18:54.590 ,6,0,12.,4.8,0.,4.8,0.,4.8,0.,4.8
1979-03-08 06:18:59.390 ,6,0,12.,4.8,0.,4.8,0.,4.8,0.,4.8
1979-03-08 06:19:04.190 ,6,0,5.,4.8,0.,4.8,0.,4.8,0.,4.8
1979-03-08 06:19:08.990 ,7,0,10.,4.8,0.,4.8,0.,4.8,0.,4.8
1979-03-08 06:19:13.790 ,7,0,5.,4.8,0.,4.8,0.,4.8,0.,4.8
1979-03-08 06:19:18.590 ,7,0,2.,4.8,0.,4.8,0.,4.8,0.,4.8
1979-03-08 06:19:23.390 ,7,0,2.,4.8,0.,4.8,0.,4.8,0.,4.8
1979-03-08 06:19:28.190 ,7,0,9.,4.8,0.,4.8,0.,4.8,0.,4.8
1979-03-08 06:19:32.990 ,7,0,2.,4.8,0.,4.8,0.,4.8,0.,4.8
1979-03-08 06:19:37.790 ,7,0,3.,4.8,0.,4.8,0.,4.8,0.,4.8
1979-03-08 06:19:42.590 ,7,0,3.,4.8,0.,4.8,0.,4.8,0.,4.8
1979-03-08 06:19:47.390 ,7,0,2.,4.8,0.,4.8,0.,4.8,0.,4.8
1979-03-08 06:19:52.190 ,7,0,3.,4.8,0.,4.8,0.,4.8,0.,4.8
1979-03-08 06:19:56.990 ,6,0,2.,4.8,0.,4.8,0.,4.8,0.,4.8
1979-03-08 06:20:01.790 ,6,0,4.,4.8,0.,4.8,0.,4.8,0.,4.8
1979-03-08 06:20:06.590 ,6,0,11.,4.8,0.,4.8,0.,4.8,0.,4.8
1979-03-08 06:20:11.390 ,6,0,12.,4.8,0.,4.8,0.,4.8,0.,4.8
1979-03-08 06:20:16.190 ,6,0,10.,4.8,0.,4.8,0.,4.8,0.,4.8
1979-03-08 06:20:20.990 ,5,0,10.,4.8,0.,4.8,0.,4.8,1.,4.8
1979-03-08 06:20:25.790 ,5,0,11.,4.8,0.,4.8,0.,4.8,0.,4.8
1979-03-08 06:20:30.590 ,5,0,11.,4.8,0.,4.8,0.,4.8,0.,4.8
1979-03-08 06:20:35.390 ,5,0,15.,4.8,0.,4.8,0.,4.8,0.,4.8
1979-03-08 06:20:40.190 ,5,0,16.,4.8,0.,4.8,0.,4.8,0.,4.8
1979-03-08 06:20:44.990 ,4,0,8.,4.8,0.,4.8,0.,4.8,0.,4.8
1979-03-08 06:20:49.790 ,4,0,10.,4.8,0.,4.8,0.,4.8,0.,4.8
1979-03-08 06:20:54.590 ,4,0,9.,4.8,0.,4.8,0.,4.8,0.,4.8
1979-03-08 06:20:59.390 ,4,0,9.,4.8,0.,4.8,0.,4.8,0.,4.8
1979-03-08 06:21:04.190 ,4,0,5.,4.8,0.,4.8,0.,4.8,0.,4.8
1979-03-08 06:21:08.990 ,3,0,12.,4.8,0.,4.8,0.,4.8,0.,4.8
1979-03-08 06:21:13.790 ,3,0,10.,4.8,0.,4.8,0.,4.8,0.,4.8
1979-03-08 06:21:18.590 ,3,0,5.,4.8,0.,4.8,0.,4.8,0.,4.8
1979-03-08 06:21:23.390 ,3,0,12.,4.8,0.,4.8,0.,4.8,0.,4.8
1979-03-08 06:21:28.190 ,3,0,15.,4.8,0.,4.8,0.,4.8,0.,4.8
1979-03-08 06:21:32.990 ,2,0,16.,4.8,0.,4.8,0.,4.8,0.,4.8
1979-03-08 06:21:37.790 ,2,0,8.,4.8,0.,4.8,0.,4.8,0.,4.8
1979-03-08 06:21:42.590 ,2,0,16.,4.8,0.,4.8,0.,4.8,0.,4.8
1979-03-08 06:21:47.390 ,2,0,14.,4.8,0.,4.8,0.,4.8,0.,4.8
1979-03-08 06:21:52.190 ,2,0,12.,4.8,0.,4.8,0.,4.8,0.,4.8
1979-03-08 06:21:56.990 ,1,0,22.,4.8,0.,4.8,0.,4.8,0.,4.8
1979-03-08 06:22:01.790 ,1,0,9.,4.8,0.,4.8,0.,4.8,0.,4.8
1979-03-08 06:22:06.590 ,1,0,12.,4.8,0.,4.8,0.,4.8,0.,4.8
1979-03-08 06:22:11.390 ,1,0,19.,4.8,0.,4.8,0.,4.8,0.,4.8
1979-03-08 06:22:16.190 ,1,0,13.,4.8,0.,4.8,0.,4.8,0.,4.8
1979-03-08 06:22:20.990 ,0,0,10.,4.8,0.,4.8,0.,4.8,0.,4.8
1979-03-08 06:22:25.790 ,0,0,18.,4.8,0.,4.8,0.,4.8,0.,4.8
1979-03-08 06:22:30.590 ,0,0,,0,,0,,0,,0
1979-03-08 06:22:35.390 ,0,0,12.,4.8,0.,4.8,0.,4.8,0.,4.8
1979-03-08 06:22:40.190 ,0,0,10.,4.8,0.,4.8,0.,4.8,0.,4.8
1979-03-08 06:22:44.990 ,0,0,14.,4.8,0.,4.8,0.,4.8,0.,4.8
1979-03-08 06:22:49.790 ,0,0,16.,4.8,0.,4.8,0.,4.8,0.,4.8
1979-03-08 06:22:54.590 ,0,0,8.,4.8,0.,4.8,0.,4.8,0.,4.8
1979-03-08 06:22:59.390 ,0,0,8.,4.8,0.,4.8,0.,4.8,0.,4.8
1979-03-08 06:23:04.190 ,0,0,11.,4.8,0.,4.8,0.,4.8,0.,4.8
1979-03-08 06:23:08.990 ,1,0,12.,4.8,0.,4.8,0.,4.8,0.,4.8
1979-03-08 06:23:13.790 ,1,0,16.,4.8,0.,4.8,0.,4.8,0.,4.8
1979-03-08 06:23:18.590 ,1,0,14.,4.8,0.,4.8,0.,4.8,0.,4.8
1979-03-08 06:23:23.390 ,1,0,11.,4.8,0.,4.8,0.,4.8,0.,4.8
1979-03-08 06:23:28.190 ,1,0,26.,4.8,0.,4.8,0.,4.8,0.,4.8
1979-03-08 06:23:32.990 ,2,0,9.,4.8,0.,4.8,0.,4.8,0.,4.8
1979-03-08 06:23:37.790 ,2,0,17.,4.8,0.,4.8,0.,4.8,0.,4.8
1979-03-08 06:23:42.590 ,2,0,13.,4.8,0.,4.8,0.,4.8,0.,4.8
1979-03-08 06:23:47.390 ,2,0,9.,4.8,0.,4.8,0.,4.8,0.,4.8
1979-03-08 06:23:52.190 ,2,0,13.,4.8,0.,4.8,0.,4.8,0.,4.8
1979-03-08 06:23:56.990 ,3,0,16.,4.8,0.,4.8,0.,4.8,1.,4.8
1979-03-08 06:24:01.790 ,3,0,22.,4.8,0.,4.8,0.,4.8,0.,4.8
1979-03-08 06:24:06.590 ,3,0,11.,4.8,0.,4.8,0.,4.8,0.,4.8
1979-03-08 06:24:11.390 ,3,0,17.,4.8,0.,4.8,0.,4.8,0.,4.8
1979-03-08 06:24:16.190 ,3,0,10.,4.8,0.,4.8,0.,4.8,0.,4.8
1979-03-08 06:24:20.990 ,4,0,14.,4.8,0.,4.8,0.,4.8,0.,4.8
1979-03-08 06:24:25.790 ,4,0,20.,4.8,0.,4.8,0.,4.8,0.,4.8
1979-03-08 06:24:30.590 ,4,0,9.,4.8,0.,4.8,0.,4.8,1.,4.8
1979-03-08 06:24:35.390 ,4,0,17.,4.8,0.,4.8,0.,4.8,0.,4.8
1979-03-08 06:24:40.190 ,4,0,12.,4.8,0.,4.8,0.,4.8,0.,4.8
1979-03-08 06:24:44.990 ,5,0,10.,4.8,0.,4.8,0.,4.8,0.,4.8
1979-03-08 06:24:49.790 ,5,0,4.,4.8,0.,4.8,0.,4.8,0.,4.8
1979-03-08 06:24:54.590 ,5,0,15.,4.8,0.,4.8,0.,4.8,0.,4.8
1979-03-08 06:24:59.390 ,5,0,10.,4.8,0.,4.8,0.,4.8,0.,4.8
1979-03-08 06:25:04.190 ,5,0,14.,4.8,0.,4.8,0.,4.8,0.,4.8
1979-03-08 06:25:08.990 ,6,0,13.,4.8,0.,4.8,0.,4.8,0.,4.8
1979-03-08 06:25:13.790 ,6,0,8.,4.8,0.,4.8,0.,4.8,0.,4.8
1979-03-08 06:25:18.590 ,6,0,14.,4.8,0.,4.8,0.,4.8,0.,4.8
1979-03-08 06:25:23.390 ,6,0,10.,4.8,0.,4.8,0.,4.8,0.,4.8
1979-03-08 06:25:28.190 ,6,0,12.,4.8,0.,4.8,0.,4.8,0.,4.8
1979-03-08 06:25:32.990 ,7,0,7.,4.8,0.,4.8,0.,4.8,0.,4.8
1979-03-08 06:25:37.790 ,7,0,15.,4.8,0.,4.8,0.,4.8,0.,4.8
1979-03-08 06:25:42.590 ,7,0,3.,4.8,0.,4.8,0.,4.8,0.,4.8
1979-03-08 06:25:47.390 ,7,0,7.,4.8,0.,4.8,0.,4.8,0.,4.8
1979-03-08 06:25:52.190 ,7,0,3.,4.8,0.,4.8,0.,4.8,0.,4.8
1979-03-08 06:25:56.990 ,7,0,4.,4.8,0.,4.8,0.,4.8,0.,4.8
1979-03-08 06:26:01.790 ,7,0,3.,4.8,0.,4.8,0.,4.8,0.,4.8
1979-03-08 06:26:06.590 ,7,0,5.,4.8,0.,4.8,0.,4.8,0.,4.8
1979-03-08 06:26:11.390 ,7,0,2.,4.8,0.,4.8,0.,4.8,0.,4.8
1979-03-08 06:26:16.190 ,7,0,2.,4.8,0.,4.8,0.,4.8,0.,4.8
1979-03-08 06:26:20.990 ,6,0,3.,4.8,0.,4.8,0.,4.8,0.,4.8
1979-03-08 06:26:25.790 ,6,0,2.,4.8,0.,4.8,0.,4.8,0.,4.8
1979-03-08 06:26:30.590 ,6,0,11.,4.8,0.,4.8,0.,4.8,0.,4.8
1979-03-08 06:26:35.390 ,6,0,14.,4.8,0.,4.8,0.,4.8,1.,4.8
1979-03-08 06:26:40.190 ,6,0,14.,4.8,0.,4.8,0.,4.8,0.,4.8
1979-03-08 06:26:44.990 ,5,0,15.,4.8,0.,4.8,0.,4.8,1.,4.8
1979-03-08 06:26:49.790 ,5,0,11.,4.8,0.,4.8,0.,4.8,0.,4.8
1979-03-08 06:26:54.590 ,5,0,10.,4.8,0.,4.8,0.,4.8,0.,4.8
1979-03-08 06:26:59.390 ,5,0,8.,4.8,0.,4.8,0.,4.8,0.,4.8
1979-03-08 06:27:04.190 ,5,0,9.,4.8,0.,4.8,0.,4.8,1.,4.8
1979-03-08 06:27:08.990 ,4,0,13.,4.8,0.,4.8,0.,4.8,0.,4.8
1979-03-08 06:27:13.790 ,4,0,10.,4.8,0.,4.8,0.,4.8,0.,4.8
1979-03-08 06:27:18.590 ,4,0,13.,4.8,0.,4.8,0.,4.8,0.,4.8
1979-03-08 06:27:23.390 ,4,0,14.,4.8,0.,4.8,0.,4.8,0.,4.8
1979-03-08 06:27:28.190 ,4,0,12.,4.8,0.,4.8,0.,4.8,0.,4.8
1979-03-08 06:27:32.990 ,3,0,13.,4.8,0.,4.8,0.,4.8,0.,4.8
1979-03-08 06:27:37.790 ,3,0,11.,4.8,0.,4.8,0.,4.8,0.,4.8
1979-03-08 06:27:42.590 ,3,0,14.,4.8,0.,4.8,0.,4.8,0.,4.8
1979-03-08 06:27:47.390 ,3,0,17.,4.8,0.,4.8,0.,4.8,0.,4.8
1979-03-08 06:27:52.190 ,3,0,13.,4.8,0.,4.8,0.,4.8,0.,4.8
1979-03-08 06:27:56.990 ,2,0,18.,4.8,0.,4.8,0.,4.8,1.,4.8
1979-03-08 06:28:01.790 ,2,0,10.,4.8,0.,4.8,0.,4.8,0.,4.8
1979-03-08 06:28:06.590 ,2,0,10.,4.8,0.,4.8,0.,4.8,0.,4.8
1979-03-08 06:28:11.390 ,2,0,6.,4.8,0.,4.8,0.,4.8,0.,4.8
1979-03-08 06:28:16.190 ,2,0,6.,4.8,0.,4.8,0.,4.8,0.,4.8
1979-03-08 06:28:20.990 ,1,0,14.,4.8,0.,4.8,0.,4.8,0.,4.8
1979-03-08 06:28:25.790 ,1,0,6.,4.8,0.,4.8,0.,4.8,0.,4.8
1979-03-08 06:28:30.590 ,1,0,7.,4.8,0.,4.8,0.,4.8,0.,4.8
1979-03-08 06:28:35.390 ,1,0,8.,4.8,0.,4.8,0.,4.8,0.,4.8
1979-03-08 06:28:40.190 ,1,0,4.,4.8,0.,4.8,0.,4.8,0.,4.8
1979-03-08 06:28:44.990 ,0,0,5.,4.8,0.,4.8,0.,4.8,0.,4.8
1979-03-08 06:28:49.790 ,0,0,10.,4.8,0.,4.8,0.,4.8,0.,4.8
1979-03-08 06:28:54.590 ,0,0,10.,4.8,0.,4.8,0.,4.8,0.,4.8
1979-03-08 06:28:59.390 ,0,0,7.,4.8,0.,4.8,0.,4.8,0.,4.8
1979-03-08 06:29:04.190 ,0,0,10.,4.8,0.,4.8,0.,4.8,0.,4.8
1979-03-08 06:29:08.990 ,0,0,11.,4.8,0.,4.8,0.,4.8,0.,4.8
1979-03-08 06:29:13.790 ,0,0,9.,4.8,0.,4.8,0.,4.8,0.,4.8
1979-03-08 06:29:18.590 ,0,0,15.,4.8,0.,4.8,0.,4.8,0.,4.8
1979-03-08 06:29:23.390 ,0,0,8.,4.8,0.,4.8,0.,4.8,0.,4.8
1979-03-08 06:29:28.190 ,0,0,15.,4.8,0.,4.8,0.,4.8,0.,4.8
1979-03-08 06:29:32.990 ,1,0,6.,4.8,0.,4.8,0.,4.8,1.,4.8
1979-03-08 06:29:37.790 ,1,0,8.,4.8,0.,4.8,0.,4.8,0.,4.8
1979-03-08 06:29:42.590 ,1,0,9.,4.8,0.,4.8,0.,4.8,0.,4.8
1979-03-08 06:29:47.390 ,1,0,3.,4.8,0.,4.8,0.,4.8,0.,4.8
1979-03-08 06:29:52.190 ,1,0,6.,4.8,0.,4.8,0.,4.8,0.,4.8
1979-03-08 06:29:56.990 ,2,0,5.,4.8,0.,4.8,0.,4.8,0.,4.8
1979-03-08 06:30:01.790 ,2,0,4.,4.8,0.,4.8,0.,4.8,0.,4.8
1979-03-08 06:30:06.590 ,2,0,4.,4.8,0.,4.8,0.,4.8,0.,4.8
1979-03-08 06:30:11.390 ,2,0,10.,4.8,0.,4.8,0.,4.8,1.,4.8
1979-03-08 06:30:16.190 ,2,0,4.,4.8,0.,4.8,0.,4.8,0.,4.8
1979-03-08 06:30:44.990 ,4,0,4.,4.8,0.,4.8,0.,4.8,0.,4.8
1979-03-08 06:30:49.790 ,4,0,2.,4.8,0.,4.8,0.,4.8,0.,4.8
1979-03-08 06:30:54.590 ,4,0,6.,4.8,0.,4.8,0.,4.8,1.,4.8
1979-03-08 06:30:59.390 ,4,0,8.,4.8,0.,4.8,0.,4.8,0.,4.8
1979-03-08 06:31:04.190 ,4,0,4.,4.8,0.,4.8,0.,4.8,0.,4.8
1979-03-08 06:31:08.990 ,5,0,1.,4.8,0.,4.8,0.,4.8,0.,4.8
1979-03-08 06:31:13.790 ,5,0,1.,4.8,0.,4.8,0.,4.8,0.,4.8
1979-03-08 06:31:18.590 ,5,0,4.,4.8,0.,4.8,0.,4.8,0.,4.8
1979-03-08 06:31:23.390 ,5,0,1.,4.8,0.,4.8,0.,4.8,0.,4.8
1979-03-08 06:31:28.190 ,5,0,3.,4.8,0.,4.8,0.,4.8,0.,4.8
1979-03-08 06:31:32.990 ,6,0,6.,4.8,0.,4.8,0.,4.8,0.,4.8
1979-03-08 06:31:37.790 ,6,0,5.,4.8,0.,4.8,0.,4.8,0.,4.8
1979-03-08 06:31:42.590 ,6,0,5.,4.8,0.,4.8,0.,4.8,0.,4.8
1979-03-08 06:31:47.390 ,6,0,4.,4.8,0.,4.8,0.,4.8,0.,4.8
1979-03-08 06:31:52.190 ,6,0,4.,4.8,0.,4.8,0.,4.8,0.,4.8
1979-03-08 06:31:56.990 ,7,0,2.,4.8,0.,4.8,0.,4.8,0.,4.8
1979-03-08 06:32:01.790 ,7,0,2.,4.8,0.,4.8,0.,4.8,0.,4.8
1979-03-08 06:32:06.590 ,7,0,4.,4.8,0.,4.8,0.,4.8,0.,4.8
1979-03-08 06:32:11.390 ,7,0,3.,4.8,0.,4.8,0.,4.8,0.,4.8
1979-03-08 06:32:16.190 ,7,0,2.,4.8,0.,4.8,0.,4.8,0.,4.8
1979-03-08 06:32:20.990 ,7,0,0.,4.8,0.,4.8,0.,4.8,0.,4.8
1979-03-08 06:32:25.790 ,7,0,0.,4.8,0.,4.8,0.,4.8,0.,4.8
1979-03-08 06:32:30.590 ,7,0,1.,4.8,0.,4.8,0.,4.8,0.,4.8
1979-03-08 06:32:35.390 ,7,0,1.,4.8,0.,4.8,0.,4.8,0.,4.8
1979-03-08 06:32:40.190 ,7,0,3.,4.8,0.,4.8,0.,4.8,0.,4.8
1979-03-08 06:32:44.990 ,6,0,1.,4.8,0.,4.8,0.,4.8,0.,4.8
1979-03-08 06:32:49.790 ,6,0,1.,4.8,0.,4.8,0.,4.8,0.,4.8
1979-03-08 06:32:54.590 ,6,0,2.,4.8,0.,4.8,0.,4.8,0.,4.8
1979-03-08 06:32:59.390 ,6,0,3.,4.8,0.,4.8,0.,4.8,0.,4.8
1979-03-08 06:33:04.190 ,6,0,0.,4.8,0.,4.8,0.,4.8,0.,4.8
1979-03-08 06:33:08.990 ,5,0,5.,4.8,0.,4.8,0.,4.8,0.,4.8
1979-03-08 06:33:13.790 ,5,0,4.,4.8,0.,4.8,0.,4.8,1.,4.8
1979-03-08 06:33:18.590 ,5,0,9.,4.8,0.,4.8,0.,4.8,0.,4.8
1979-03-08 06:33:23.390 ,5,0,3.,4.8,0.,4.8,0.,4.8,0.,4.8
1979-03-08 06:33:28.190 ,5,0,1.,4.8,0.,4.8,0.,4.8,0.,4.8